GFSNGP_700_temp_273.txt.gz
Temp
-6 -7 -6 -6 -6 -7 -7 -7 -7 -5 -5 -4 -3 -4 -4 -4 -5 -5 -5 -4 -2 -1 0 1 1 2 3 2 1 1 0 1 1 2 2 1 1 0 -0 1 2 1 2 2
-7 -8 -8 -8 -8 -8 -8 -7 -7 -7 -7 -3 -5 -5 -5 -6 -5 -5 -5 -4 -3 -3 -1 -0 0 1 1 2 2 1 1 0 1 1 2 0 1 -0 -1 0 0 1 1 1
-9 -9 -9 -9 -7 -7 -7 -7 -7 -7 -5 -5 -5 -5 -6 -6 -6 -6 -6 -5 -4 -4 -3 -2 -1 0 1 1 1 1 1 -0 -0 -0 0 -0 -0 -0 -0 -0 -0 -0 -1 -1
-10 -9 -9 -7 -7 -7 -7 -6 -6 -6 -6 -6 -6 -6 -6 -6 -6 -6 -6 -5 -4 -4 -3 -3 -2 -1 0 1 1 -1 -0 -0 1 -0 -0 -0 -0 -0 -0 -0 -0 -0 -0 -2
-10 -9 -8 -8 -7 -7 -8 -6 -7 -6 -6 -6 -6 -6 -6 -6 -7 -6 -6 -6 -5 -5 -4 -3 -3 -3 -2 -2 -2 -1 -0 -0 0 -0 -1 -1 -1 -1 -1 -1 -1 -1 -2 -2
-9 -9 -8 -7 -7 -7 -7 -8 -7 -7 -7 -6 -6 -7 -7 -7 -7 -7 -7 -6 -6 -5 -4 -4 -4 -3 -4 -2 -3 -2 -2 -1 -1 -1 -1 -1 -2 -1 -1 -2 -2 -2 -2 -2
-10 -10 -9 -8 -8 -8 -8 -7 -8 -8 -8 -8 -8 -8 -8 -7 -7 -7 -7 -6 -6 -5 -5 -4 -4 -4 -3 -4 -4 -3 -3 -2 -2 -2 -3 -3 -2 -3 -4 -3 -3 -2 -3 -4
-10 -10 -9 -8 -8 -8 -8 -8 -8 -9 -8 -9 -9 -8 -8 -7 -7 -7 -7 -6 -6 -6 -5 -5 -4 -4 -4 -4 -4 -5 -4 -4 -4 -4 -4 -4 -4 -3 -3 -6 -5 -5 -4 -4
-9 -8 -8 -8 -8 -8 -9 -9 -9 -9 -9 -9 -8 -8 -8 -7 -7 -7 -7 -7 -6 -6 -5 -5 -4 -4 -4 -6 -5 -6 -5 -5 -4 -4 -4 -4 -4 -7 -7 -6 -5 -5 -5 -5
-11 -8 -8 -9 -9 -9 -9 -9 -9 -9 -10 -10 -9 -9 -9 -9 -8 -8 -8 -7 -6 -6 -6 -5 -6 -7 -7 -7 -6 -6 -5 -5 -5 -5 -4 -7 -7 -6 -5 -5 -6 -6 -6 -5
-10 -7 -9 -10 -11 -10 -10 -10 -10 -10 -10 -10 -10 -10 -10 -9 -9 -9 -8 -8 -7 -6 -6 -6 -7 -7 -8 -8 -7 -7 -6 -6 -5 -6 -9 -6 -6 -6 -6 -6 -6 -5 -5 -5
-10 -10 -10 -10 -10 -10 -11 -10 -10 -10 -9 -9 -9 -10 -10 -9 -9 -9 -8 -8 -7 -7 -6 -6 -7 -7 -8 -8 -7 -7 -6 -7 -9 -9 -7 -7 -6 -6 -6 -6 -6 -6 -7 -8
-10 -10 -10 -10 -10 -11 -12 -12 -11 -10 -10 -9 -9 -9 -10 -10 -9 -9 -9 -8 -8 -7 -6 -8 -9 -9 -8 -8 -8 -8 -10 -10 -8 -7 -7 -7 -6 -7 -7 -7 -9 -10 -10 -11
-9 -10 -8 -9 -10 -10 -10 -11 -12 -10 -10 -9 -9 -9 -9 -10 -9 -9 -9 -9 -8 -8 -9 -10 -9 -9 -9 -8 -9 -11 -9 -8 -8 -8 -8 -8 -8 -9 -9 -10 -11 -11 -12 -13
-9 -9 -10 -10 -10 -9 -10 -11 -11 -12 -10 -10 -10 -10 -10 -10 -10 -9 -9 -8 -9 -10 -11 -10 -10 -9 -9 -11 -10 -9 -9 -9 -9 -9 -9 -9 -10 -10 -11 -12 -12 -13 -14 -15
-8 -9 -8 -9 -9 -9 -10 -11 -10 -10 -10 -10 -10 -10 -10 -10 -9 -9 -9 -10 -11 -11 -11 -10 -10 -11 -11 -10 -10 -9 -10 -9 -9 -9 -10 -10 -11 -12 -13 -13 -14 -14 -15 -15
-8 -8 -8 -9 -9 -9 -9 -10 -10 -10 -10 -10 -10 -10 -10 -9 -9 -9 -11 -12 -12 -11 -11 -11 -12 -11 -10 -10 -10 -10 -10 -10 -10 -11 -11 -12 -12 -13 -13 -14 -15 -16 -16 -16
-8 -9 -9 -9 -9 -9 -8 -9 -9 -10 -10 -10 -10 -9 -9 -10 -10 -12 -12 -12 -11 -11 -12 -12 -11 -10 -10 -11 -11 -10 -11 -11 -11 -11 -11 -12 -13 -14 -15 -15 -16 -16 -17 -17
-7 -9 -9 -9 -9 -9 -9 -9 -9 -9 -9 -9 -9 -10 -10 -11 -12 -12 -12 -12 -12 -12 -11 -11 -11 -11 -11 -11 -12 -11 -11 -11 -12 -12 -13 -13 -14 -15 -16 -17 -17 -17 -17 -17
-8 -8 -9 -9 -9 -9 -9 -9 -9 -10 -10 -10 -11 -11 -12 -12 -12 -11 -12 -12 -12 -12 -11 -11 -12 -12 -11 -11 -11 -12 -12 -12 -12 -12 -13 -14 -16 -16 -17 -17 -17 -18 -18 -18
-9 -8 -9 -9 -9 -9 -10 -10 -10 -10 -10 -11 -11 -12 -12 -11 -12 -12 -12 -11 -11 -11 -11 -11 -12 -12 -12 -12 -12 -11 -11 -12 -13 -13 -14 -15 -16 -17 -17 -18 -18 -18 -18 -18
-10 -9 -9 -9 -9 -9 -10 -11 -11 -11 -11 -12 -12 -11 -11 -11 -12 -12 -12 -12 -11 -11 -12 -12 -12 -12 -12 -11 -12 -12 -13 -13 -14 -15 -15 -15 -16 -17 -18 -19 -19 -19 -19 -19
-9 -10 -10 -10 -10 -10 -10 -11 -11 -11 -11 -11 -11 -11 -12 -11 -12 -13 -12 -12 -11 -12 -13 -12 -12 -12 -12 -13 -13 -13 -13 -14 -14 -14 -15 -16 -17 -18 -19 -19 -19 -19 -19 -19
-9 -10 -10 -10 -10 -10 -10 -10 -10 -10 -11 -11 -11 -11 -12 -12 -12 -13 -13 -12 -12 -13 -12 -12 -12 -12 -13 -13 -12 -13 -14 -14 -14 -15 -15 -16 -18 -19 -19 -19 -19 -19 -19 -19
-9 -9 -9 -10 -10 -11 -11 -10 -10 -10 -11 -11 -11 -11 -12 -12 -13 -12 -13 -12 -12 -13 -13 -13 -12 -12 -12 -13 -13 -13 -13 -14 -14 -15 -16 -17 -18 -19 -19 -19 -19 -19 -19 -19
-9 -9 -9 -10 -10 -10 -10 -10 -11 -11 -11 -11 -11 -11 -12 -12 -13 -13 -13 -13 -13 -13 -13 -13 -12 -12 -13 -13 -13 -13 -13 -14 -14 -15 -17 -17 -18 -19 -19 -19 -19 -19 -19 -20
-9 -10 -10 -10 -10 -10 -10 -10 -11 -11 -11 -11 -12 -12 -12 -13 -13 -13 -13 -13 -13 -13 -13 -13 -13 -13 -12 -12 -12 -13 -13 -14 -15 -16 -17 -17 -18 -18 -19 -19 -20 -20 -20 -20

GFSNGP_700_temp_276.txt.gz
Temp
-4 -5 -5 -5 -5 -6 -5 -5 -5 -4 -4 -4 -4 -4 -4 -5 -5 -5 -5 -6 -5 -4 -4 -3 -2 -1 -0 1 0 1 1 1 1 0 -0 0 1 1 1 1 0 -0 -1 -1
-6 -6 -6 -6 -6 -6 -6 -6 -5 -5 -5 -5 -4 -5 -5 -5 -5 -5 -6 -6 -6 -5 -4 -4 -3 -3 -2 -1 -0 0 -0 0 1 0 -0 -2 -1 0 0 -0 -1 -1 -1 -1
-7 -6 -7 -6 -5 -5 -5 -5 -5 -5 -5 -5 -6 -5 -5 -6 -6 -6 -6 -7 -6 -5 -5 -4 -4 -3 -3 -2 -1 -0 -1 -0 -1 -0 -1 -1 -1 -1 -1 -1 -1 -1 -1 -1
-8 -7 -6 -4 -5 -6 -6 -6 -6 -6 -6 -6 -6 -5 -5 -6 -6 -7 -7 -7 -6 -6 -5 -5 -4 -4 -4 -3 -3 -2 -2 -2 -1 -1 -1 -1 -1 -2 -1 -1 -1 -1 -2 -1
-8 -7 -6 -6 -5 -5 -6 -6 -6 -6 -6 -6 -6 -6 -6 -7 -8 -8 -8 -8 -7 -6 -6 -6 -5 -4 -4 -3 -3 -3 -2 -2 -2 -2 -1 -1 -1 -2 -2 -1 -2 -1 -2 -3
-8 -8 -6 -4 -6 -7 -7 -7 -6 -6 -6 -7 -7 -6 -6 -8 -7 -7 -8 -8 -7 -6 -6 -6 -5 -4 -4 -4 -4 -4 -4 -4 -3 -3 -3 -3 -3 -3 -3 -3 -2 -3 -4 -3
-8 -8 -7 -6 -7 -7 -7 -5 -6 -7 -7 -7 -8 -7 -8 -8 -9 -9 -9 -8 -7 -7 -6 -6 -6 -5 -4 -4 -5 -6 -5 -5 -5 -5 -4 -4 -4 -4 -3 -3 -4 -4 -4 -5
-7 -7 -7 -6 -7 -8 -8 -8 -8 -8 -8 -8 -8 -8 -9 -9 -9 -9 -9 -9 -7 -7 -7 -6 -6 -6 -5 -6 -7 -6 -6 -6 -6 -5 -5 -4 -5 -5 -5 -5 -6 -6 -5 -5
-8 -7 -7 -8 -9 -9 -10 -10 -9 -9 -9 -10 -10 -9 -9 -9 -9 -9 -10 -9 -8 -7 -7 -7 -6 -6 -7 -7 -7 -7 -7 -7 -6 -6 -6 -6 -5 -6 -8 -7 -6 -5 -5 -5
-9 -8 -9 -9 -9 -10 -10 -10 -10 -10 -10 -10 -10 -10 -10 -10 -10 -10 -10 -9 -8 -8 -7 -7 -6 -7 -8 -8 -8 -9 -8 -8 -7 -7 -7 -9 -9 -8 -7 -6 -6 -7 -7 -6
-9 -9 -8 -8 -9 -10 -10 -10 -11 -11 -10 -10 -10 -10 -10 -10 -10 -10 -9 -8 -8 -8 -8 -7 -7 -8 -9 -9 -9 -9 -9 -8 -7 -9 -10 -10 -9 -8 -7 -8 -8 -8 -7 -7
-9 -8 -9 -8 -9 -10 -10 -11 -11 -11 -11 -11 -10 -10 -10 -10 -10 -10 -9 -9 -9 -9 -8 -7 -8 -9 -9 -9 -9 -10 -9 -9 -10 -11 -9 -9 -8 -8 -8 -8 -8 -8 -8 -9
-9 -8 -8 -8 -9 -10 -10 -11 -11 -12 -13 -12 -11 -10 -10 -10 -10 -9 -10 -9 -10 -9 -8 -9 -10 -10 -10 -9 -10 -10 -12 -12 -11 -9 -9 -9 -9 -9 -9 -9 -10 -10 -11 -12
-8 -9 -7 -8 -8 -9 -10 -10 -11 -11 -12 -12 -11 -10 -10 -10 -9 -10 -10 -10 -9 -9 -9 -10 -11 -11 -10 -10 -10 -12 -11 -10 -10 -10 -10 -10 -10 -10 -10 -11 -12 -13 -14 -15
-8 -9 -9 -9 -8 -9 -10 -10 -11 -10 -11 -10 -10 -10 -10 -9 -10 -10 -10 -9 -10 -10 -11 -11 -11 -11 -10 -12 -12 -11 -11 -10 -11 -11 -11 -11 -11 -12 -12 -13 -14 -15 -15 -15
-7 -8 -8 -8 -8 -8 -8 -9 -9 -10 -10 -10 -10 -10 -10 -10 -10 -10 -10 -10 -11 -12 -12 -12 -11 -11 -12 -11 -11 -11 -11 -11 -11 -12 -12 -12 -12 -13 -14 -14 -14 -15 -15 -15
-7 -7 -7 -8 -8 -8 -8 -8 -9 -9 -9 -10 -10 -10 -10 -10 -10 -10 -11 -12 -12 -12 -12 -11 -12 -12 -12 -12 -12 -12 -12 -12 -12 -12 -12 -13 -13 -13 -13 -13 -15 -16 -16 -16
-7 -8 -9 -9 -9 -8 -9 -9 -10 -10 -10 -10 -10 -10 -10 -10 -11 -11 -12 -12 -12 -12 -12 -12 -12 -12 -12 -12 -12 -12 -12 -12 -12 -13 -13 -12 -12 -13 -14 -15 -15 -16 -17 -17
-7 -8 -9 -9 -9 -9 -9 -9 -10 -10 -10 -10 -10 -10 -11 -11 -12 -12 -13 -12 -12 -12 -12 -12 -12 -12 -12 -12 -12 -12 -12 -12 -12 -13 -13 -13 -13 -13 -15 -16 -17 -17 -17 -17
-8 -8 -8 -9 -9 -9 -9 -9 -10 -10 -10 -11 -11 -11 -12 -12 -12 -12 -12 -12 -13 -13 -12 -12 -12 -12 -12 -12 -12 -12 -12 -12 -12 -12 -12 -13 -14 -15 -17 -18 -18 -18 -18 -18
-9 -9 -9 -9 -9 -9 -10 -10 -10 -10 -11 -11 -12 -12 -12 -12 -12 -12 -13 -12 -12 -12 -12 -12 -12 -12 -12 -12 -12 -12 -12 -12 -12 -12 -13 -14 -16 -17 -18 -18 -18 -18 -18 -18
-9 -10 -10 -10 -10 -10 -10 -10 -11 -11 -11 -12 -12 -12 -11 -11 -12 -12 -13 -13 -12 -12 -12 -12 -12 -12 -12 -12 -12 -12 -12 -12 -13 -14 -15 -15 -16 -17 -18 -18 -18 -18 -18 -18
-9 -9 -10 -10 -11 -10 -10 -10 -11 -11 -11 -11 -11 -11 -12 -12 -12 -13 -13 -12 -12 -12 -12 -12 -12 -12 -12 -12 -12 -12 -13 -14 -14 -15 -15 -15 -16 -17 -18 -19 -18 -18 -18 -19
-9 -9 -9 -10 -10 -10 -10 -10 -10 -10 -11 -11 -11 -12 -12 -12 -12 -13 -13 -12 -12 -12 -12 -12 -11 -11 -11 -12 -12 -13 -13 -14 -14 -15 -15 -15 -16 -17 -18 -19 -19 -19 -19 -19
-9 -9 -9 -9 -9 -10 -10 -10 -11 -11 -11 -11 -11 -11 -12 -12 -14 -13 -13 -12 -12 -12 -12 -12 -12 -12 -12 -12 -13 -13 -13 -14 -14 -14 -15 -15 -16 -18 -18 -19 -19 -19 -19 -19
-9 -9 -9 -9 -10 -10 -10 -10 -10 -11 -11 -12 -12 -12 -12 -12 -13 -13 -13 -13 -12 -12 -13 -12 -12 -12 -12 -12 -13 -13 -13 -13 -13 -14 -15 -16 -17 -18 -18 -19 -19 -19 -19 -19
-9 -9 -9 -9 -10 -10 -10 -11 -10 -11 -11 -11 -12 -12 -12 -12 -13 -13 -13 -13 -13 -12 -12 -12 -12 -12 -12 -12 -13 -13 -13 -13 -13 -14 -15 -16 -17 -17 -18 -19 -19 -19 -19 -19

GFSNGP_700_temp_279.txt.gz
Temp
-2 -2 -2 -2 -2 -2 -2 -2 -2 -2 -2 -2 -2 -2 -3 -4 -4 -4 -5 -5 -5 -5 -5 -6 -7 -4 -4 -3 -3 -2 -1 -1 -0 -0 -0 -0 -0 -0 0 -1 -0 -1 -1 -1
-4 -3 -2 -3 -3 -3 -3 -3 -3 -2 -2 -2 -3 -3 -3 -4 -4 -4 -5 -6 -6 -6 -6 -6 -7 -5 -5 -4 -3 -3 -3 -2 -1 -1 -0 -1 -1 -1 -1 -2 -2 -2 -2 -2
-4 -3 -4 -4 -2 -2 -3 -3 -3 -3 -3 -3 -3 -3 -4 -4 -4 -5 -5 -6 -6 -6 -6 -7 -8 -6 -5 -5 -4 -4 -4 -3 -3 -2 -2 -1 -1 -1 -1 -2 -2 -3 -2 -2
-6 -5 -4 -2 -2 -3 -3 -3 -3 -3 -3 -3 -4 -4 -4 -4 -5 -6 -7 -7 -7 -7 -7 -7 -7 -6 -5 -5 -4 -4 -4 -4 -3 -3 -3 -2 -3 -3 -3 -3 -3 -3 -3 -2
-6 -5 -5 -4 -3 -4 -4 -5 -4 -4 -4 -4 -5 -5 -5 -5 -6 -7 -7 -7 -7 -7 -7 -7 -6 -6 -6 -5 -4 -4 -5 -5 -5 -4 -4 -4 -4 -4 -4 -4 -4 -4 -4 -5
-6 -6 -5 -3 -4 -5 -5 -5 -4 -6 -6 -7 -7 -7 -5 -7 -6 -7 -7 -7 -7 -7 -8 -6 -6 -6 -6 -6 -5 -6 -6 -6 -6 -6 -5 -5 -5 -5 -5 -5 -5 -5 -5 -5
-6 -7 -6 -5 -5 -6 -7 -6 -7 -7 -8 -8 -8 -8 -8 -8 -7 -7 -7 -7 -8 -8 -7 -8 -7 -7 -6 -6 -7 -7 -7 -6 -7 -7 -6 -6 -6 -6 -6 -6 -6 -6 -8 -8
-5 -5 -5 -5 -5 -7 -8 -8 -8 -9 -9 -9 -9 -8 -9 -9 -8 -8 -8 -8 -8 -8 -8 -8 -7 -7 -7 -7 -8 -8 -8 -8 -8 -8 -8 -7 -7 -7 -6 -8 -8 -8 -7 -7
-6 -6 -6 -7 -8 -8 -9 -9 -10 -11 -11 -11 -10 -9 -9 -9 -9 -9 -8 -8 -8 -8 -8 -8 -8 -7 -7 -7 -8 -9 -9 -9 -9 -8 -9 -8 -8 -9 -9 -8 -8 -8 -7 -7
-7 -7 -7 -8 -7 -9 -9 -9 -10 -12 -12 -12 -11 -10 -10 -9 -9 -9 -9 -8 -8 -9 -9 -8 -8 -7 -7 -8 -9 -10 -10 -10 -9 -9 -8 -10 -11 -10 -9 -9 -8 -8 -8 -8
-8 -7 -8 -7 -9 -8 -8 -8 -11 -11 -12 -12 -12 -11 -10 -10 -10 -9 -9 -9 -9 -9 -9 -9 -8 -8 -9 -9 -10 -10 -10 -10 -9 -10 -11 -12 -10 -9 -9 -9 -9 -9 -9 -9
-9 -8 -8 -7 -8 -8 -8 -8 -10 -10 -11 -12 -11 -11 -10 -10 -9 -9 -9 -9 -10 -9 -9 -9 -9 -10 -10 -10 -10 -11 -11 -10 -11 -12 -11 -10 -10 -10 -10 -10 -10 -10 -11 -11
-9 -8 -8 -8 -7 -8 -8 -9 -9 -10 -11 -12 -12 -10 -10 -10 -9 -10 -10 -10 -10 -10 -9 -9 -10 -11 -11 -11 -11 -11 -11 -13 -11 -11 -11 -11 -11 -11 -11 -12 -12 -12 -12 -12
-8 -8 -7 -8 -7 -8 -8 -8 -8 -9 -11 -11 -10 -10 -10 -10 -10 -10 -10 -10 -10 -10 -10 -11 -11 -11 -12 -11 -11 -13 -12 -12 -11 -11 -11 -11 -11 -12 -12 -12 -13 -13 -14 -14
-8 -8 -8 -8 -8 -8 -8 -8 -8 -8 -9 -9 -10 -10 -10 -10 -10 -10 -10 -10 -10 -10 -11 -11 -12 -12 -11 -12 -13 -12 -12 -12 -12 -12 -12 -12 -12 -12 -13 -13 -14 -15 -15 -15
-7 -8 -8 -8 -8 -8 -8 -8 -8 -9 -10 -10 -10 -10 -10 -10 -10 -10 -10 -10 -11 -12 -12 -12 -12 -12 -13 -12 -12 -12 -12 -12 -12 -12 -12 -12 -13 -13 -14 -14 -15 -15 -15 -15
-7 -7 -9 -9 -8 -8 -8 -9 -9 -9 -9 -10 -10 -10 -10 -10 -10 -10 -11 -12 -12 -12 -12 -12 -13 -12 -12 -12 -12 -12 -12 -12 -12 -12 -12 -13 -14 -14 -15 -15 -16 -16 -16 -16
-8 -7 -8 -8 -8 -9 -9 -9 -9 -9 -9 -9 -10 -10 -11 -11 -12 -12 -12 -12 -13 -12 -12 -12 -12 -12 -12 -12 -12 -12 -12 -12 -12 -13 -13 -14 -14 -15 -16 -16 -16 -16 -16 -16
-8 -7 -8 -9 -9 -9 -9 -10 -10 -10 -10 -10 -11 -11 -12 -12 -12 -12 -13 -13 -13 -12 -12 -12 -12 -12 -12 -12 -12 -12 -12 -12 -13 -13 -14 -14 -15 -15 -15 -16 -17 -17 -17 -16
-9 -8 -8 -8 -9 -9 -10 -10 -11 -11 -11 -11 -12 -12 -12 -12 -13 -13 -13 -12 -12 -12 -12 -12 -12 -12 -12 -12 -12 -12 -12 -13 -14 -13 -13 -14 -14 -15 -16 -17 -17 -17 -17 -17
-9 -9 -9 -10 -9 -9 -9 -10 -10 -11 -11 -12 -12 -12 -12 -12 -12 -12 -12 -12 -12 -12 -12 -12 -12 -12 -12 -12 -12 -13 -13 -13 -12 -13 -13 -14 -15 -16 -16 -17 -17 -17 -17 -17
-9 -9 -10 -10 -10 -10 -10 -10 -11 -11 -12 -12 -12 -12 -12 -11 -12 -12 -12 -12 -12 -12 -12 -12 -12 -12 -12 -12 -12 -12 -12 -12 -13 -14 -14 -15 -16 -16 -17 -18 -18 -18 -17 -18
-9 -9 -9 -10 -10 -10 -10 -10 -10 -11 -11 -11 -11 -11 -12 -11 -12 -12 -13 -12 -12 -12 -12 -12 -12 -11 -12 -12 -12 -12 -12 -13 -13 -14 -14 -15 -15 -16 -17 -18 -18 -18 -18 -18
-9 -9 -9 -10 -10 -10 -10 -10 -10 -11 -11 -11 -11 -11 -12 -12 -12 -12 -13 -12 -12 -11 -12 -12 -12 -11 -12 -12 -12 -12 -12 -13 -14 -14 -15 -15 -15 -16 -17 -18 -18 -18 -18 -18
-9 -9 -9 -9 -10 -10 -10 -10 -10 -11 -11 -11 -11 -11 -12 -12 -13 -13 -12 -12 -12 -12 -12 -12 -11 -11 -11 -12 -12 -12 -13 -13 -14 -14 -14 -14 -15 -16 -17 -18 -18 -18 -18 -18
-9 -9 -9 -9 -9 -10 -10 -10 -10 -10 -11 -11 -12 -12 -12 -12 -12 -13 -12 -12 -12 -11 -11 -11 -11 -11 -12 -12 -12 -13 -13 -13 -13 -14 -14 -14 -15 -16 -17 -18 -18 -18 -18 -18
-9 -9 -9 -9 -10 -10 -10 -10 -10 -10 -10 -11 -11 -12 -12 -12 -12 -12 -12 -12 -12 -11 -11 -11 -11 -12 -12 -12 -12 -12 -13 -13 -13 -13 -14 -14 -15 -16 -17 -17 -18 -18 -19 -19

GFSNGP_700_temp_282.txt.gz
Temp
-2 -1 -1 -1 -1 -0 -0 -0 -0 -1 -1 -1 -1 -2 -2 -2 -3 -3 -3 -4 -4 -5 -6 -6 -6 -5 -5 -6 -5 -4 -4 -5 -4 -4 -3 -2 -2 -1 -1 -1 -1 -2 -2 -2
-3 -2 -1 -1 -2 -2 -1 -1 -1 -1 -2 -2 -2 -3 -2 -3 -3 -3 -4 -5 -5 -5 -6 -6 -6 -5 -6 -6 -5 -4 -4 -5 -4 -4 -3 -3 -3 -3 -2 -2 -2 -3 -3 -2
-3 -2 -3 -2 -1 -2 -2 -2 -2 -2 -3 -3 -4 -4 -4 -4 -4 -5 -4 -6 -6 -6 -7 -7 -6 -5 -6 -6 -6 -5 -4 -6 -5 -5 -4 -4 -4 -4 -3 -3 -3 -3 -4 -3
-4 -4 -3 -1 -2 -2 -3 -3 -3 -3 -4 -5 -6 -6 -5 -5 -6 -7 -7 -7 -7 -7 -7 -7 -6 -7 -6 -6 -6 -5 -5 -7 -6 -6 -6 -5 -5 -5 -4 -4 -4 -4 -4 -3
-5 -5 -5 -2 -2 -3 -4 -5 -5 -6 -6 -6 -6 -6 -6 -6 -7 -7 -7 -7 -7 -8 -7 -6 -7 -7 -6 -6 -6 -6 -8 -8 -7 -7 -7 -7 -6 -6 -5 -6 -6 -5 -5 -5
-5 -5 -4 -3 -3 -4 -5 -5 -5 -5 -8 -8 -8 -10 -8 -8 -8 -8 -7 -8 -7 -7 -7 -7 -7 -7 -7 -7 -7 -7 -8 -8 -8 -8 -8 -8 -7 -7 -7 -7 -7 -7 -7 -7
-5 -6 -5 -4 -5 -5 -5 -6 -7 -7 -7 -8 -9 -11 -11 -10 -10 -9 -8 -8 -7 -7 -7 -7 -7 -8 -7 -7 -7 -8 -8 -8 -9 -9 -9 -9 -8 -8 -8 -8 -10 -9 -8 -9
-4 -4 -4 -4 -4 -7 -8 -7 -7 -7 -8 -9 -11 -12 -12 -12 -10 -9 -8 -8 -8 -7 -7 -7 -8 -8 -8 -7 -8 -8 -9 -9 -10 -10 -10 -10 -9 -10 -11 -11 -10 -9 -9 -8
-5 -4 -5 -6 -7 -8 -7 -7 -7 -8 -8 -12 -12 -12 -12 -11 -10 -9 -9 -8 -8 -7 -8 -8 -8 -8 -8 -8 -9 -9 -10 -10 -10 -10 -10 -10 -10 -12 -11 -10 -10 -10 -10 -10
-6 -6 -6 -7 -7 -7 -6 -7 -8 -9 -11 -11 -13 -11 -11 -10 -9 -9 -9 -8 -8 -8 -9 -9 -9 -8 -9 -10 -10 -10 -10 -11 -11 -11 -11 -12 -12 -12 -11 -11 -10 -11 -11 -11
-6 -7 -6 -6 -7 -7 -7 -7 -8 -8 -11 -11 -11 -10 -10 -9 -9 -9 -9 -8 -9 -9 -9 -9 -9 -9 -10 -11 -11 -11 -11 -11 -11 -12 -13 -12 -12 -11 -12 -11 -11 -11 -11 -11
-7 -6 -7 -7 -7 -7 -7 -7 -8 -8 -10 -10 -9 -10 -10 -10 -9 -10 -9 -9 -9 -10 -10 -9 -10 -11 -11 -11 -12 -12 -12 -12 -13 -12 -12 -12 -12 -12 -12 -12 -12 -12 -13 -13
-6 -7 -7 -8 -7 -8 -8 -7 -8 -8 -9 -9 -9 -9 -10 -9 -10 -9 -9 -10 -10 -10 -10 -10 -11 -11 -11 -12 -12 -12 -13 -12 -12 -12 -12 -12 -12 -12 -13 -13 -13 -14 -14 -14
-7 -7 -7 -7 -7 -8 -7 -7 -8 -9 -9 -9 -9 -9 -9 -9 -9 -10 -10 -10 -10 -10 -11 -11 -12 -12 -12 -12 -13 -12 -12 -12 -12 -12 -12 -12 -12 -13 -13 -14 -14 -14 -15 -15
-7 -7 -7 -7 -8 -8 -8 -8 -8 -8 -9 -9 -9 -9 -10 -10 -10 -10 -10 -10 -11 -11 -12 -12 -12 -12 -12 -13 -12 -12 -12 -12 -12 -12 -12 -13 -13 -13 -13 -14 -15 -16 -16 -15
-7 -7 -7 -7 -8 -8 -8 -8 -8 -9 -9 -10 -10 -10 -10 -10 -10 -10 -11 -11 -12 -12 -12 -13 -12 -12 -12 -12 -12 -12 -12 -12 -12 -12 -13 -13 -13 -14 -15 -15 -15 -15 -16 -16
-7 -7 -7 -7 -8 -9 -9 -8 -9 -9 -9 -10 -10 -10 -10 -10 -11 -11 -12 -12 -12 -13 -12 -12 -12 -12 -12 -12 -12 -12 -12 -12 -12 -12 -13 -13 -14 -15 -15 -16 -16 -16 -16 -16
-7 -7 -7 -7 -8 -9 -9 -9 -9 -10 -10 -11 -11 -11 -11 -11 -12 -12 -12 -12 -13 -12 -12 -12 -12 -12 -12 -12 -12 -12 -12 -12 -12 -13 -13 -14 -15 -16 -16 -16 -16 -16 -16 -17
-7 -7 -8 -7 -8 -9 -10 -10 -10 -10 -11 -11 -12 -12 -12 -12 -12 -12 -12 -13 -12 -12 -12 -12 -12 -12 -12 -12 -12 -12 -12 -12 -12 -13 -14 -15 -15 -15 -16 -16 -17 -16 -16 -17
-8 -8 -8 -8 -8 -9 -9 -10 -10 -11 -11 -11 -12 -12 -12 -12 -12 -13 -12 -12 -12 -12 -11 -11 -12 -12 -11 -11 -12 -12 -12 -12 -13 -14 -13 -14 -15 -16 -17 -17 -16 -16 -17 -17
-8 -8 -8 -9 -9 -10 -10 -10 -11 -11 -11 -12 -12 -12 -12 -12 -12 -11 -12 -12 -12 -11 -11 -11 -11 -11 -11 -11 -12 -12 -13 -13 -13 -13 -14 -14 -15 -16 -16 -16 -17 -17 -17 -17
-8 -8 -9 -9 -10 -10 -10 -10 -11 -11 -11 -12 -11 -11 -11 -11 -11 -11 -12 -12 -11 -11 -11 -11 -11 -11 -11 -12 -12 -12 -12 -12 -13 -13 -14 -14 -15 -15 -16 -17 -17 -17 -17 -17
-8 -9 -9 -9 -9 -10 -10 -10 -11 -11 -11 -11 -11 -11 -12 -12 -11 -12 -12 -12 -11 -11 -11 -11 -11 -11 -11 -12 -12 -12 -12 -12 -13 -13 -14 -14 -15 -16 -16 -17 -17 -17 -17 -17
-8 -9 -9 -9 -10 -10 -10 -10 -10 -11 -11 -11 -11 -11 -11 -12 -12 -11 -12 -12 -11 -11 -11 -11 -11 -11 -11 -12 -12 -12 -12 -12 -13 -13 -14 -15 -15 -15 -16 -17 -17 -17 -18 -18
-8 -9 -9 -9 -9 -10 -10 -10 -10 -10 -11 -11 -11 -11 -12 -11 -11 -12 -12 -11 -11 -11 -11 -11 -11 -11 -11 -12 -12 -12 -12 -12 -13 -13 -14 -14 -14 -15 -15 -16 -17 -18 -18 -18
-8 -9 -9 -9 -9 -10 -10 -10 -10 -10 -10 -11 -11 -12 -12 -12 -11 -12 -12 -11 -11 -11 -11 -11 -11 -11 -11 -11 -12 -12 -12 -13 -13 -13 -14 -13 -14 -15 -15 -16 -17 -18 -18 -18
-9 -9 -9 -9 -9 -10 -10 -10 -10 -10 -10 -11 -11 -11 -12 -12 -11 -11 -11 -11 -11 -11 -11 -11 -11 -11 -11 -12 -12 -12 -13 -13 -13 -13 -13 -13 -14 -15 -15 -16 -16 -17 -18 -18

GFSNGP_700_temp_288.txt.gz
Temp
1 0 -0 -0 -1 -2 -2 -2 -2 -2 -3 -3 -3 -3 -3 -4 -5 -4 -5 -6 -8 -8 -8 -8 -7 -7 -8 -7 -7 -7 -7 -7 -7 -7 -8 -8 -7 -8 -8 -8 -7 -7 -6 -6
-0 -0 -1 -1 -2 -2 -2 -2 -2 -2 -2 -2 -3 -4 -5 -5 -5 -6 -7 -9 -10 -8 -8 -8 -8 -7 -8 -7 -7 -7 -7 -7 -7 -8 -9 -8 -8 -8 -8 -8 -8 -7 -7 -7
-2 -1 -1 -1 -3 -3 -3 -3 -3 -3 -3 -4 -5 -5 -5 -5 -6 -7 -8 -8 -9 -11 -10 -8 -8 -8 -8 -8 -8 -7 -7 -8 -8 -9 -9 -9 -9 -9 -9 -9 -9 -9 -8 -8
-4 -3 -8 -2 -3 -3 -4 -4 -4 -4 -5 -5 -5 -5 -5 -7 -8 -8 -8 -9 -10 -11 -10 -9 -9 -8 -8 -8 -8 -7 -8 -9 -9 -9 -9 -9 -9 -10 -10 -10 -10 -11 -10 -10
-4 -5 -1 -2 -3 -4 -3 -4 -4 -5 -5 -5 -5 -5 -6 -8 -8 -8 -9 -9 -9 -10 -9 -9 -9 -8 -9 -8 -8 -8 -9 -9 -9 -9 -10 -10 -10 -10 -10 -11 -12 -11 -11 -11
-5 -5 -7 -3 -3 -3 -4 -4 -4 -5 -6 -6 -5 -4 -6 -7 -8 -8 -9 -8 -9 -9 -9 -9 -8 -9 -9 -8 -8 -9 -9 -10 -10 -10 -11 -11 -11 -12 -12 -13 -12 -11 -11 -10
-5 -5 -4 -2 -3 -4 -4 -4 -5 -6 -6 -6 -5 -6 -7 -8 -8 -8 -8 -8 -9 -9 -9 -9 -8 -9 -9 -9 -10 -10 -10 -10 -11 -11 -12 -12 -12 -13 -13 -12 -12 -12 -11 -11
-5 -5 -5 -3 -4 -4 -4 -5 -5 -6 -7 -6 -6 -6 -7 -8 -8 -8 -9 -9 -9 -8 -8 -9 -9 -9 -9 -10 -10 -10 -11 -11 -12 -12 -12 -12 -12 -13 -13 -13 -12 -12 -12 -12
-3 -3 -3 -3 -4 -4 -4 -5 -5 -6 -6 -6 -6 -6 -7 -7 -8 -9 -9 -9 -9 -9 -9 -9 -10 -10 -11 -11 -11 -11 -12 -12 -12 -12 -12 -12 -13 -13 -13 -13 -13 -13 -13 -13
-4 -4 -4 -4 -4 -5 -5 -5 -6 -6 -6 -6 -7 -7 -7 -8 -8 -9 -9 -10 -10 -10 -10 -10 -10 -10 -11 -11 -12 -13 -13 -12 -12 -12 -12 -13 -13 -13 -13 -13 -13 -13 -13 -13
-4 -4 -4 -5 -5 -5 -6 -6 -6 -6 -6 -6 -7 -7 -7 -8 -9 -9 -9 -9 -10 -10 -10 -10 -11 -11 -12 -12 -13 -12 -12 -12 -12 -13 -13 -13 -13 -13 -13 -13 -13 -13 -13 -14
-4 -4 -5 -5 -5 -6 -6 -6 -6 -7 -7 -7 -7 -8 -8 -8 -9 -9 -10 -10 -10 -10 -10 -11 -11 -12 -12 -13 -12 -12 -12 -12 -12 -12 -13 -13 -13 -13 -14 -14 -14 -14 -14 -15
-4 -5 -5 -6 -6 -6 -6 -6 -7 -7 -7 -7 -8 -8 -8 -9 -9 -9 -10 -10 -10 -11 -11 -11 -12 -12 -12 -12 -12 -12 -12 -12 -12 -13 -13 -13 -13 -14 -14 -14 -15 -15 -14 -14
-4 -5 -6 -7 -6 -7 -6 -7 -7 -8 -8 -8 -8 -8 -9 -9 -9 -10 -10 -11 -11 -11 -11 -12 -12 -12 -12 -11 -12 -12 -12 -12 -13 -13 -13 -14 -14 -15 -15 -14 -14 -14 -15 -15
-6 -6 -7 -7 -7 -6 -6 -7 -8 -9 -9 -9 -9 -9 -9 -10 -10 -10 -11 -11 -11 -11 -12 -11 -11 -12 -11 -11 -12 -12 -12 -12 -12 -13 -13 -14 -14 -14 -14 -15 -15 -15 -16 -16
-6 -7 -6 -7 -7 -7 -7 -7 -9 -9 -10 -10 -10 -10 -10 -10 -11 -11 -12 -12 -11 -12 -12 -11 -11 -11 -11 -11 -12 -12 -12 -12 -13 -13 -13 -14 -14 -15 -15 -15 -15 -15 -15 -15
-6 -7 -7 -7 -7 -7 -7 -8 -9 -10 -10 -10 -11 -11 -11 -11 -11 -11 -12 -12 -12 -12 -11 -11 -11 -11 -11 -11 -12 -12 -12 -12 -12 -13 -13 -13 -14 -15 -15 -15 -15 -15 -16 -16
-7 -7 -7 -7 -7 -7 -8 -8 -9 -9 -10 -11 -11 -11 -12 -12 -12 -12 -12 -11 -12 -12 -12 -11 -11 -11 -11 -11 -11 -12 -12 -12 -12 -12 -13 -13 -14 -15 -15 -15 -15 -15 -16 -17
-7 -7 -7 -7 -7 -8 -8 -8 -9 -9 -10 -11 -11 -12 -12 -12 -12 -12 -11 -12 -12 -12 -12 -11 -11 -11 -11 -11 -11 -11 -11 -11 -12 -12 -13 -13 -14 -15 -15 -16 -16 -16 -16 -17
-7 -8 -7 -7 -8 -8 -9 -9 -10 -10 -11 -11 -12 -12 -12 -12 -12 -12 -12 -11 -12 -12 -11 -11 -11 -11 -11 -11 -11 -11 -11 -12 -12 -12 -13 -13 -14 -14 -15 -16 -16 -16 -17 -17
-8 -8 -8 -8 -8 -8 -9 -9 -10 -11 -11 -11 -12 -13 -12 -12 -12 -11 -11 -11 -12 -12 -11 -11 -11 -11 -11 -11 -11 -11 -12 -12 -12 -12 -13 -13 -14 -14 -15 -16 -16 -17 -17 -17
-8 -8 -8 -8 -8 -8 -9 -9 -10 -11 -11 -11 -11 -11 -11 -12 -12 -11 -11 -11 -12 -11 -11 -11 -11 -11 -11 -11 -11 -12 -12 -12 -12 -12 -13 -13 -14 -14 -15 -16 -16 -17 -17 -17
-8 -8 -8 -8 -8 -9 -9 -10 -10 -10 -11 -11 -11 -11 -11 -12 -11 -11 -11 -11 -11 -11 -11 -11 -11 -11 -11 -11 -12 -12 -12 -12 -12 -12 -13 -13 -14 -14 -15 -15 -16 -17 -17 -17
-8 -8 -8 -8 -8 -9 -9 -9 -10 -10 -11 -11 -11 -11 -11 -11 -11 -11 -11 -11 -11 -11 -11 -11 -11 -11 -11 -11 -12 -12 -12 -12 -12 -12 -12 -13 -14 -14 -15 -15 -16 -16 -17 -18
-8 -8 -8 -8 -9 -9 -9 -9 -10 -10 -10 -11 -11 -11 -11 -11 -11 -11 -11 -11 -11 -11 -11 -11 -11 -11 -11 -12 -12 -12 -12 -12 -12 -12 -13 -13 -14 -14 -14 -15 -15 -16 -16 -17
-8 -8 -8 -8 -9 -9 -9 -10 -10 -10 -10 -11 -11 -11 -11 -11 -11 -11 -11 -11 -11 -11 -11 -11 -11 -11 -12 -12 -12 -12 -12 -12 -12 -12 -13 -13 -14 -14 -14 -14 -15 -15 -16 -16
-8 -8 -9 -9 -9 -9 -9 -10 -10 -10 -10 -10 -10 -11 -11 -11 -11 -11 -11 -11 -11 -11 -11 -11 -11 -11 -11 -12 -12 -12 -12 -12 -12 -13 -13 -13 -13 -14 -14 -14 -15 -15 -15 -16